Find Starlink 36952

NORAD ID: 68062 Int'l Des: 2026-041 Owner: SPXS Country: US Constellation: starlink operational
LEOCIRCULAR

Live Position

Loading 3D Globe...

About Starlink 36952

Description loading...

Upcoming Passes

Passes for default location (London). Set your location on the main map for personalized predictions.

Altitude History

Loading altitude history...

Two-Line Element Set

1 68062U 26041Y 26106.83335647 -.01634479 00000-0 -41703-1 0 9991
2 68062 53.1602 233.2244 0001359 105.5325 160.4061 15.42331054 6002
Epoch: Apr 16, 2026 • Age: 5 hours

Current Status

Altitude 460.5 km
Velocity 7.64 km/s
Sub-Earth Point -52.66°S, 85.08°W
Launch Date Mar 2, 2026
Age 0.1 years
Type internet

Technical Details

Classification Payload
Mass 575.00 kg
Dry Mass 530.00 kg
Total Mass 575.00 kg
Length 0.30 m
Diameter 4.10 m
Span 29.00 m
Shape Box + pan
Manufacturer SPXS
Bus Type Starlink V2MO
Phase Status In Orbit
Owner/State SPXS/US

Most Searched